STAR ONE D2

Last updated on Sat Nov 15 2025 00:02:52 GMT+0000 (Coordinated Universal Time)

1 49055U 21069A 25318.06114041 -.00000263 00000+0 00000+0 0 9997 2 49055 0.0113 283.8967 0002542 295.0993 146.4551 1.00263772 15777
UTC large
Height (km)
Speed (km/s)
/
Latitude / Longitude
Inclination (degrees)
Orbital Period (minutes)
Azimuth
Elevation
Range (km)
Doppler Factor

Next 0 passes for location: London (51.5072 / 0.1276)

Sorry there are no passes over London.